TimeCDT,TemperatureF,Dew PointF,Humidity,Sea Level PressureIn,VisibilityMPH,Wind Direction,Wind SpeedMPH,Gust SpeedMPH,PrecipitationIn,Events,Conditions,WindDirDegrees,DateUTC
12:15 AM,57.4,57.4,100,29.71,7.0,South,13.8,-,N/A,,Overcast,180,2013-10-31 05:15:00
12:35 AM,57.6,57.6,100,29.69,7.0,South,10.4,-,N/A,,Overcast,180,2013-10-31 05:35:00
12:55 AM,58.1,58.1,100,29.68,10.0,South,11.5,18.4,N/A,,Overcast,190,2013-10-31 05:55:00
1:15 AM,58.1,58.1,100,29.67,7.0,South,13.8,20.7,N/A,,Overcast,190,2013-10-31 06:15:00
1:35 AM,58.3,58.3,100,29.67,7.0,SSW,11.5,-,N/A,,Overcast,200,2013-10-31 06:35:00
1:55 AM,58.1,58.1,100,29.66,10.0,SSW,12.7,-,N/A,,Overcast,200,2013-10-31 06:55:00
2:15 AM,58.1,58.1,100,29.65,10.0,SSW,11.5,-,N/A,,Mostly Cloudy,210,2013-10-31 07:15:00
2:35 AM,58.1,58.1,100,29.62,10.0,South,13.8,-,N/A,,Mostly Cloudy,190,2013-10-31 07:35:00
2:55 AM,58.5,58.5,100,29.63,10.0,SW,10.4,-,N/A,,Mostly Cloudy,220,2013-10-31 07:55:00
3:15 AM,59.0,59.0,100,29.62,10.0,SSW,9.2,-,N/A,,Overcast,210,2013-10-31 08:15:00
3:35 AM,59.0,59.0,100,29.61,10.0,SSW,9.2,-,N/A,,Overcast,210,2013-10-31 08:35:00
3:55 AM,59.0,59.0,100,29.59,7.0,South,10.4,-,N/A,,Overcast,190,2013-10-31 08:55:00
4:15 AM,59.4,59.4,100,29.59,2.0,SSW,12.7,-,N/A,,Overcast,200,2013-10-31 09:15:00
4:35 AM,59.9,59.9,100,29.58,1.2,SSW,11.5,-,N/A,,Overcast,200,2013-10-31 09:35:00
4:55 AM,60.4,60.4,100,29.57,5.0,SSW,11.5,-,N/A,,Overcast,200,2013-10-31 09:55:00
5:15 AM,60.8,60.8,100,29.57,5.0,SSW,13.8,-,N/A,,Overcast,200,2013-10-31 10:15:00
5:35 AM,60.8,60.8,100,29.57,7.0,SSW,15.0,-,0.01,Rain,Rain,200,2013-10-31 10:35:00
5:55 AM,60.8,60.8,100,29.56,7.0,South,15.0,18.4,0.02,Rain,Rain,190,2013-10-31 10:55:00
6:15 AM,60.8,60.8,100,29.55,5.0,South,9.2,-,0.02,Rain,Light Rain,190,2013-10-31 11:15:00
6:35 AM,60.8,60.8,100,29.54,5.0,South,13.8,-,0.03,Rain,Rain,190,2013-10-31 11:35:00
6:55 AM,60.8,60.8,100,29.52,4.0,South,17.3,23.0,0.05,Rain,Rain,190,2013-10-31 11:55:00
7:15 AM,60.8,60.8,100,29.52,5.0,South,15.0,-,0.01,Rain,Light Rain,190,2013-10-31 12:15:00
7:35 AM,60.8,60.8,100,29.51,5.0,South,15.0,-,0.04,Rain,Rain,190,2013-10-31 12:35:00
7:55 AM,60.8,60.8,100,29.51,4.0,SSW,13.8,21.9,0.04,,Overcast,200,2013-10-31 12:55:00
8:15 AM,60.8,60.8,100,29.52,1.8,SSW,15.0,20.7,N/A,,Overcast,210,2013-10-31 13:15:00
8:35 AM,60.8,60.8,100,29.51,1.5,SSW,13.8,-,0.01,,Drizzle,210,2013-10-31 13:35:00
8:55 AM,60.8,60.8,100,29.51,1.8,SSW,13.8,-,0.02,,Drizzle,210,2013-10-31 13:55:00
9:15 AM,60.8,60.8,100,29.50,2.0,SW,12.7,-,0.02,Rain,Rain,220,2013-10-31 14:15:00
9:35 AM,60.8,60.8,100,29.49,2.5,SSW,12.7,-,0.02,,Overcast,210,2013-10-31 14:35:00
9:55 AM,61.0,61.0,100,29.48,1.2,SSW,10.4,17.3,0.02,,Overcast,210,2013-10-31 14:55:00
10:15 AM,61.0,61.0,100,29.47,1.5,SSW,10.4,-,N/A,,Light Drizzle,210,2013-10-31 15:15:00
10:35 AM,60.8,60.8,100,29.46,1.8,SSW,15.0,-,N/A,,Overcast,210,2013-10-31 15:35:00
10:55 AM,61.0,61.0,100,29.45,1.5,SSW,11.5,-,N/A,,Overcast,210,2013-10-31 15:55:00
11:15 AM,61.0,61.0,100,29.44,3.0,SSW,12.7,-,0.04,Rain,Light Rain,210,2013-10-31 16:15:00
11:35 AM,61.0,61.0,100,29.43,2.0,SW,12.7,-,0.12,Rain,Heavy Rain,230,2013-10-31 16:35:00
11:55 AM,60.8,60.8,100,29.42,5.0,West,10.4,-,0.20,Rain,Light Rain,260,2013-10-31 16:55:00
12:15 PM,60.4,60.4,100,29.41,7.0,WSW,10.4,-,N/A,Rain,Rain,250,2013-10-31 17:15:00
12:35 PM,60.1,60.1,100,29.40,10.0,WSW,12.7,-,N/A,,Drizzle,240,2013-10-31 17:35:00
12:55 PM,59.9,59.9,100,29.39,7.0,SW,10.4,-,0.02,Rain,Light Rain,230,2013-10-31 17:55:00
1:15 PM,59.5,59.5,100,29.38,7.0,WSW,11.5,-,0.02,Rain,Rain,240,2013-10-31 18:15:00
1:35 PM,59.2,59.2,100,29.37,7.0,WSW,12.7,-,0.04,Rain,Rain,240,2013-10-31 18:35:00
1:55 PM,58.8,58.8,100,29.36,5.0,WSW,13.8,-,0.06,Rain,Rain,250,2013-10-31 18:55:00
2:15 PM,58.3,58.3,100,29.34,7.0,West,21.9,-,0.02,Rain,Light Rain,260,2013-10-31 19:15:00
2:35 PM,56.1,56.1,100,29.34,7.0,West,17.3,29.9,0.05,Rain,Rain,270,2013-10-31 19:35:00
2:55 PM,54.9,54.9,100,29.33,5.0,West,16.1,21.9,0.09,Rain,Rain,280,2013-10-31 19:55:00
3:15 PM,54.3,54.3,100,29.31,7.0,WNW,18.4,24.2,0.01,Rain,Light Rain,290,2013-10-31 20:15:00
3:35 PM,54.0,54.0,100,29.31,7.0,West,16.1,24.2,0.02,Rain,Rain,280,2013-10-31 20:35:00
3:55 PM,52.9,52.9,100,29.29,10.0,WNW,18.4,25.3,0.03,Rain,Rain,290,2013-10-31 20:55:00
4:15 PM,52.0,52.0,100,29.29,10.0,WNW,18.4,23.0,0.01,Rain,Light Rain,290,2013-10-31 21:15:00
4:35 PM,50.9,50.9,100,29.30,10.0,West,13.8,23.0,0.01,Rain,Light Rain,280,2013-10-31 21:35:00
4:55 PM,50.2,50.2,100,29.30,7.0,WNW,16.1,25.3,0.03,Rain,Light Rain,290,2013-10-31 21:55:00
5:15 PM,49.6,49.6,100,29.31,10.0,West,18.4,24.2,0.01,Rain,Light Rain,280,2013-10-31 22:15:00
5:35 PM,49.1,49.1,100,29.31,10.0,West,16.1,21.9,0.01,,Drizzle,280,2013-10-31 22:35:00
5:55 PM,48.2,48.2,100,29.32,10.0,West,16.1,24.2,0.01,,Light Drizzle,280,2013-10-31 22:55:00
6:15 PM,47.7,47.7,100,29.33,10.0,West,17.3,-,N/A,,Overcast,280,2013-10-31 23:15:00
6:35 PM,46.8,46.8,100,29.33,10.0,West,18.4,25.3,N/A,,Overcast,280,2013-10-31 23:35:00
6:55 PM,46.4,46.4,100,29.34,10.0,West,15.0,21.9,N/A,,Light Drizzle,280,2013-10-31 23:55:00
7:15 PM,45.7,45.7,100,29.33,10.0,West,17.3,26.5,N/A,,Overcast,280,2013-11-01 00:15:00
7:35 PM,45.5,45.5,100,29.34,10.0,West,19.6,23.0,N/A,,Light Drizzle,270,2013-11-01 00:35:00
7:55 PM,44.8,44.8,100,29.35,10.0,West,19.6,28.8,N/A,,Overcast,270,2013-11-01 00:55:00
8:15 PM,44.6,44.6,100,29.34,10.0,West,15.0,21.9,N/A,,Overcast,280,2013-11-01 01:15:00
8:35 PM,43.9,43.9,100,29.34,10.0,West,18.4,24.2,N/A,,Overcast,280,2013-11-01 01:35:00
8:55 PM,43.5,43.5,100,29.33,10.0,West,15.0,23.0,N/A,,Light Drizzle,270,2013-11-01 01:55:00
9:15 PM,43.0,43.0,100,29.31,10.0,West,21.9,25.3,N/A,,Overcast,280,2013-11-01 02:15:00
9:35 PM,42.8,42.8,100,29.33,10.0,West,19.6,25.3,N/A,,Scattered Clouds,270,2013-11-01 02:35:00
9:55 PM,42.6,42.6,100,29.33,10.0,West,19.6,26.5,N/A,,Mostly Cloudy,270,2013-11-01 02:55:00
10:15 PM,43.0,43.0,100,29.36,10.0,West,18.4,25.3,N/A,,Overcast,270,2013-11-01 03:15:00
10:35 PM,42.8,42.8,100,29.36,10.0,West,20.7,27.6,N/A,,Overcast,260,2013-11-01 03:35:00
10:55 PM,42.8,42.8,100,29.37,10.0,West,17.3,26.5,N/A,,Overcast,260,2013-11-01 03:55:00
11:15 PM,42.8,42.8,100,29.37,10.0,WSW,17.3,25.3,N/A,,Overcast,250,2013-11-01 04:15:00
11:35 PM,42.4,42.4,100,29.38,10.0,West,17.3,23.0,N/A,,Overcast,260,2013-11-01 04:35:00
11:55 PM,42.4,42.4,100,29.38,10.0,WSW,18.4,25.3,N/A,,Overcast,250,2013-11-01 04:55:00